Temp
8 8 8 9 10 10 11 12 13 12 12 13 14 15 15 15 16 17 20 22 24 23 23 25 26 27 29 30 31 32 30 30 32 34 36 38 36 37 37 36 36 37 36 35 34
8 8 8 8 9 10 10 11 11 12 12 13 13 14 15 15 14 18 21 22 23 23 23 25 26 29 29 30 30 30 30 30 33 35 36 37 36 36 35 35 35 36 36 34 34
8 8 8 8 8 9 9 10 11 11 11 12 13 13 14 15 18 22 23 22 22 23 23 24 25 28 28 30 30 31 30 31 33 35 36 35 36 36 35 34 35 35 35 35 34
8 7 7 7 7 8 9 10 10 11 11 12 12 13 14 14 20 21 20 21 22 22 22 24 25 26 27 28 30 29 31 32 33 34 34 34 34 34 35 35 36 37 36 36 34
8 8 7 7 7 7 8 9 10 10 11 11 12 12 13 17 19 21 21 21 22 23 24 25 26 26 26 28 29 30 31 32 33 33 33 34 33 33 34 36 36 36 35 35 34
7 7 7 7 7 8 8 9 9 10 10 11 11 12 12 15 20 21 21 21 22 24 25 27 27 28 28 28 29 30 31 32 32 33 33 32 32 33 33 35 35 35 35 34 34
7 7 7 7 7 8 8 8 9 10 10 11 11 11 12 15 20 22 22 23 23 23 24 25 27 27 28 27 29 30 29 30 31 32 32 32 31 31 33 34 34 34 34 35 35
6 7 7 7 7 7 8 8 9 9 10 10 10 10 13 14 16 17 20 22 22 22 23 24 25 25 25 27 27 27 28 27 30 31 31 31 29 32 33 33 33 34 34 35 34
6 7 7 7 7 7 8 8 9 9 10 10 10 11 13 14 15 18 19 22 23 22 22 23 24 23 24 24 24 25 25 27 28 31 31 31 30 32 33 33 34 33 34 34 34
6 7 7 7 7 7 8 9 9 9 10 11 13 14 15 15 18 17 19 21 22 23 23 22 23 22 23 24 23 24 25 26 27 30 31 31 31 33 33 33 33 34 34 34 34
6 6 7 7 7 8 8 10 11 11 12 14 15 15 21 19 19 20 20 21 22 22 21 22 21 22 23 24 25 26 27 27 29 30 30 30 31 32 33 33 33 33 33 34 33
6 5 6 7 7 7 7 11 12 9 11 15 17 17 18 19 19 20 21 20 21 20 21 22 21 24 24 25 25 26 25 26 28 30 30 30 30 31 32 32 32 32 33 33 33
6 5 5 6 7 7 9 11 11 11 11 14 16 17 18 20 19 20 22 22 21 20 21 21 22 24 24 25 25 26 26 26 26 28 28 28 28 29 30 31 32 32 32 33 33
5 4 4 6 6 9 11 11 11 11 10 13 16 17 18 19 18 21 22 22 21 21 22 22 24 24 24 24 25 25 27 27 27 26 25 27 23 28 30 31 31 31 31 31 32
5 4 4 5 6 10 10 10 11 11 9 17 17 19 20 18 19 20 22 21 20 21 22 21 23 24 24 25 26 25 27 27 27 26 26 26 25 27 29 30 31 32 32 31 32
5 5 5 6 7 9 9 10 10 8 9 15 20 18 18 19 19 21 21 21 22 21 22 23 25 24 25 26 26 27 26 26 26 26 23 26 25 26 27 29 30 31 32 32 32
5 5 5 7 8 8 10 10 8 7 13 15 18 18 18 19 19 19 19 19 18 17 18 20 22 25 25 24 26 26 25 22 22 22 22 26 25 26 28 29 30 30 31 31 30
5 5 6 7 9 8 9 8 7 10 11 15 15 15 12 12 17 19 19 18 19 19 19 18 20 22 24 24 25 25 25 22 20 21 22 25 23 26 28 29 29 30 30 30 30
5 5 6 6 7 7 7 6 8 10 13 14 15 13 14 14 13 16 18 19 19 17 17 19 20 23 24 25 25 24 23 25 23 24 22 24 26 27 29 29 29 30 31 30 30
6 6 6 7 6 7 6 7 8 11 13 13 10 11 11 12 11 9 13 16 17 20 17 18 17 21 23 25 25 24 25 22 22 19 19 22 24 25 27 29 29 29 29 29 29
6 6 8 7 6 6 6 8 9 12 12 11 11 11 12 11 11 9 8 9 8 9 11 17 16 18 21 21 23 23 22 23 24 21 18 19 21 25 26 27 28 28 29 29 29
6 5 7 6 6 6 6 8 10 11 12 11 11 12 11 12 11 11 8 9 11 8 8 8 11 14 16 21 23 23 23 23 19 19 20 20 20 26 27 27 28 29 29 29 28
5 6 6 5 6 6 6 7 9 10 11 11 11 12 12 11 10 11 11 9 7 7 6 7 8 10 14 16 19 20 21 21 21 20 17 17 18 23 24 26 27 28 27 27 27
5 5 5 5 7 7 7 7 7 9 10 11 11 12 11 10 11 10 10 11 12 9 9 7 8 8 10 11 11 13 19 21 20 16 17 19 20 23 24 24 25 26 27 27 27
5 5 8 6 5 7 8 8 8 8 10 10 10 10 9 8 9 10 11 12 13 13 12 7 7 10 10 11 12 13 15 17 21 20 15 16 20 22 24 25 26 27 27 27 28
3 5 8 8 9 8 8 7 8 9 10 8 9 11 11 10 10 9 10 10 10 11 9 7 7 10 8 11 12 10 12 14 16 19 22 22 20 23 25 25 26 26 26 27 27
5 7 5 7 8 8 8 8 7 9 10 11 11 10 10 11 12 12 12 11 11 10 9 8 8 8 8 11 10 9 13 15 16 19 21 22 23 23 21 25 25 25 26 26 27
Height
797 795 794 791 790 789 788 787 787 788 787 787 787 786 785 785 782 781 775 771 770 769 769 769 766 762 758 755 749 744 762 763 749 739 722 697 707 705 705 712 712 712 716 719 722
796 795 793 792 790 788 786 786 785 786 785 785 785 784 784 784 780 773 767 767 765 766 768 767 763 757 754 751 748 750 758 753 730 716 714 702 708 713 717 721 719 717 716 723 726
794 793 792 790 789 786 785 784 783 783 783 782 783 782 783 783 776 757 753 758 761 762 764 765 764 757 755 745 744 743 750 738 725 712 706 709 709 706 716 724 717 719 718 719 724
791 791 790 788 787 785 784 783 782 782 782 781 781 781 782 783 777 754 756 756 758 758 760 760 759 760 758 755 740 748 732 730 724 715 714 717 712 715 711 712 706 705 706 712 718
788 788 788 787 785 784 782 782 781 780 780 779 779 780 781 775 760 757 755 758 756 756 754 753 753 753 756 747 741 739 731 723 720 717 715 713 720 720 714 705 703 705 708 712 714
786 785 785 785 783 781 780 779 779 778 777 777 777 778 778 765 755 755 755 756 756 753 749 745 744 742 743 740 739 731 725 721 716 715 715 720 721 719 714 706 705 706 706 709 713
783 782 782 781 781 779 778 776 776 775 775 774 775 775 769 749 749 749 750 751 752 753 750 745 743 742 738 742 731 729 735 725 719 715 717 716 723 722 711 707 707 707 705 704 706
781 779 779 779 779 777 775 773 773 773 773 772 773 773 753 751 750 747 748 747 749 749 750 749 745 742 743 738 737 738 733 742 722 717 713 719 727 711 704 706 706 702 698 697 699
777 776 776 776 776 775 773 771 770 769 769 771 772 771 750 743 742 742 745 743 744 746 747 748 748 747 746 753 756 741 745 736 729 711 710 712 716 705 700 698 697 696 695 693 694
772 772 773 774 774 772 770 767 765 766 766 768 766 764 742 730 731 732 737 740 739 739 741 744 746 751 746 745 745 744 737 734 731 713 703 707 702 693 690 692 693 690 688 686 687
769 770 771 771 771 770 769 765 764 762 757 740 736 728 707 717 728 720 728 731 733 738 737 736 749 742 726 728 727 722 722 723 711 699 706 705 699 690 686 686 690 690 685 682 685
768 768 768 769 769 768 768 762 758 759 749 737 729 722 721 720 722 718 720 724 728 725 732 737 730 706 725 718 723 724 726 720 706 697 699 699 698 691 687 686 687 686 683 684 683
768 768 767 768 768 766 762 757 758 756 750 729 720 717 716 719 714 713 708 709 714 722 719 722 697 712 714 718 722 715 717 713 714 708 702 707 709 701 690 684 683 683 679 676 677
766 766 765 768 769 760 758 755 756 756 747 721 709 700 707 711 710 704 698 702 708 705 707 707 695 705 707 710 709 714 697 703 707 714 725 706 738 702 689 684 680 680 678 676 672
766 766 767 766 763 759 759 757 756 757 747 693 691 686 685 697 683 689 697 700 698 692 703 699 692 696 699 691 695 696 696 698 699 709 712 711 723 682 685 682 674 666 661 662 659
767 767 766 766 764 760 759 757 758 763 738 697 675 682 685 684 688 685 685 696 686 694 689 685 674 681 680 676 681 683 696 697 697 701 718 700 708 684 691 680 672 663 657 652 651
766 766 767 765 762 759 758 759 762 755 717 699 682 682 684 682 681 689 689 692 696 706 703 692 680 669 673 682 674 682 692 712 717 716 712 684 701 687 672 663 663 662 655 649 648
764 765 765 764 762 761 761 762 764 733 728 697 697 699 718 712 683 675 682 688 684 685 689 700 687 673 661 662 670 672 681 701 719 712 702 682 703 683 660 660 653 650 647 646 645
764 764 764 763 763 763 764 763 746 732 720 710 703 710 702 702 709 686 674 676 681 693 693 683 674 663 660 661 666 668 675 669 688 682 697 682 669 659 645 647 647 645 637 643 642
764 764 759 760 763 765 765 752 745 732 724 721 728 725 714 708 721 727 699 687 681 672 687 683 687 660 654 653 653 658 656 681 677 706 705 686 675 671 647 638 639 639 638 638 638
765 763 754 757 761 765 758 748 739 731 729 730 725 723 717 716 718 733 731 727 731 718 700 680 687 662 664 658 654 651 660 660 657 673 700 697 675 650 643 634 635 632 631 632 633
764 763 756 756 761 758 753 747 740 734 729 729 729 721 717 715 718 726 737 734 717 730 726 724 703 678 670 643 645 641 644 644 670 678 668 671 673 632 631 624 627 626 623 625 627
762 760 757 756 753 752 751 747 740 735 730 729 725 722 719 717 723 722 722 729 737 734 732 735 725 701 666 668 650 646 644 640 638 644 667 678 670 630 632 626 620 621 624 624 625
764 759 759 757 751 746 745 745 745 735 732 727 723 721 722 718 715 717 721 717 717 726 727 739 726 722 701 692 699 681 643 633 645 664 658 644 645 631 626 628 624 623 622 620 621
762 755 745 746 751 746 742 739 736 734 730 726 725 723 724 727 720 715 706 702 702 701 705 730 724 711 707 698 689 676 656 644 624 635 661 657 644 633 612 615 613 615 614 616 616
761 754 743 738 734 735 734 734 731 726 724 728 725 716 713 714 711 714 706 704 705 702 711 722 713 697 700 689 681 684 670 654 639 627 611 617 631 620 603 603 610 605 612 612 609
753 750 750 736 732 730 727 724 728 722 716 711 710 710 712 708 701 698 697 698 694 695 702 712 711 705 692 678 686 688 653 640 633 620 610 606 603 605 610 598 597 600 604 604 602
Wind_Speed
15 14 14 14 12 12 12 12 15 16 15 12 12 14 15 17 21 21 20 17 10 12 8 13 16 18 17 16 18 19 13 15 21 19 19 15 11 11 9 6 4 5 7 12 25
14 14 15 14 11 11 13 13 13 13 15 14 12 12 13 14 18 26 30 28 28 24 15 16 17 17 13 17 16 16 14 20 21 20 16 15 9 10 10 9 9 7 6 8 8
14 13 14 14 13 12 11 12 14 14 15 15 13 11 11 10 14 24 25 28 25 26 22 22 23 19 18 17 18 20 18 20 23 21 19 14 9 12 18 17 13 12 11 11 8
14 13 14 13 13 12 12 12 12 14 16 12 14 12 9 5 7 6 6 6 4 9 16 20 17 20 19 20 19 23 23 22 22 22 21 13 15 20 14 15 10 8 12 13 13
16 15 14 12 11 12 13 13 12 12 12 13 10 12 6 10 16 10 2 4 5 10 16 16 19 18 22 21 21 24 24 23 21 22 21 16 16 19 19 16 11 15 8 8 7
17 16 15 13 12 12 13 13 14 13 11 12 11 11 8 24 19 23 18 10 12 11 11 14 15 17 20 23 22 22 23 24 23 22 22 18 19 18 19 18 16 15 14 14 14
19 19 16 14 13 12 12 12 13 13 13 11 13 10 10 19 15 18 26 23 21 16 13 16 13 15 16 18 21 22 23 22 23 21 21 22 23 24 21 20 20 19 19 16 15
21 20 18 15 14 13 12 12 13 13 13 11 10 12 12 14 35 36 22 20 21 20 22 18 16 12 16 16 22 18 20 21 22 24 21 20 25 21 20 20 22 21 17 16 18
22 19 17 16 14 14 14 14 15 14 14 11 7 10 15 11 34 32 29 24 17 13 17 22 17 13 12 14 15 19 19 23 22 23 21 25 27 21 21 22 20 20 20 18 16
21 17 13 14 15 14 14 15 13 10 13 14 19 10 15 14 20 32 34 35 23 15 14 14 11 16 16 16 21 20 23 21 23 21 21 25 25 21 20 20 21 18 19 17 14
14 12 11 14 13 12 13 14 5 7 23 16 13 19 14 27 20 23 34 29 27 21 24 20 13 23 31 25 25 22 20 24 21 20 23 22 21 17 17 19 18 17 16 13 15
10 10 11 12 12 10 11 8 7 2 8 27 28 28 41 33 13 21 28 26 25 29 25 19 25 32 23 26 25 26 27 25 22 21 18 15 19 18 18 14 16 18 16 16 12
12 14 9 9 10 11 14 14 9 12 6 17 23 31 30 25 25 22 26 27 27 29 30 29 35 24 27 26 28 27 27 25 25 18 17 15 21 20 21 21 16 20 20 17 16
8 7 9 8 7 15 15 6 5 8 5 11 22 19 27 30 28 33 23 25 29 32 31 31 32 30 29 30 27 27 28 26 24 20 16 16 16 20 21 22 22 25 24 23 21
5 4 5 10 13 4 1 3 4 3 5 6 20 12 21 34 28 28 40 26 31 34 23 28 32 30 31 33 28 30 19 23 24 21 20 21 14 25 19 19 19 18 18 27 24
11 4 2 12 13 12 7 3 6 4 7 6 2 19 21 26 33 28 30 30 26 28 24 30 29 31 33 30 28 26 24 25 24 18 18 24 22 25 17 20 20 18 18 16 10
9 9 12 11 7 7 4 3 4 6 12 8 6 12 13 21 27 30 32 28 24 19 26 29 33 28 26 30 28 29 25 17 17 17 20 24 21 20 13 20 24 17 13 20 10
8 11 11 12 10 3 4 4 8 5 16 21 20 19 12 14 16 26 27 24 31 30 14 22 26 33 27 30 28 25 26 18 27 17 19 23 20 20 25 26 30 23 24 11 6
3 8 13 12 8 3 3 7 4 10 15 19 19 15 14 4 9 15 25 26 27 26 27 20 32 28 30 27 27 26 23 26 25 21 13 17 21 27 30 25 25 28 26 13 5
8 5 13 11 10 6 4 9 6 11 15 16 19 10 21 11 12 16 10 2 24 25 28 25 27 30 26 27 32 26 20 19 15 24 26 23 24 12 20 21 24 20 19 11 9
6 3 5 12 12 3 5 5 9 13 14 17 18 17 22 20 15 9 5 18 12 19 23 21 21 30 27 29 26 24 26 27 18 15 18 20 19 21 24 19 13 13 14 8 4
3 3 0 14 5 3 7 6 5 13 16 11 14 18 21 21 19 16 12 12 20 7 8 11 8 21 27 29 26 24 26 30 19 19 12 19 16 12 22 26 20 16 17 10 8
2 3 1 6 4 8 7 11 14 15 17 18 18 18 19 23 19 14 15 3 5 2 7 12 5 5 10 12 24 30 25 23 20 17 22 14 12 29 26 22 17 6 10 12 12
1 3 1 3 8 11 11 11 11 12 16 17 18 18 19 20 18 12 18 14 9 11 14 4 5 9 10 15 14 15 27 26 25 20 22 22 23 25 23 24 24 20 17 14 13
2 4 6 3 6 14 16 13 15 15 14 18 17 17 17 17 16 17 23 22 20 18 9 6 10 16 17 20 21 25 27 28 26 27 23 14 25 30 30 21 19 17 18 16 16
3 3 6 11 15 15 15 15 22 20 18 17 17 17 16 17 19 16 20 19 17 10 3 4 7 9 16 18 19 21 25 26 28 29 27 28 29 28 28 25 20 22 18 19 18
8 17 5 8 12 12 14 19 12 19 16 20 21 19 19 19 18 18 18 17 17 16 12 4 5 7 16 17 13 11 21 22 26 29 27 28 24 25 28 30 25 22 21 22 20
Wind_Direction
323 324 321 316 302 293 283 275 261 268 273 276 281 286 291 296 297 293 259 255 273 296 281 285 276 274 259 253 261 260 251 259 256 257 266 293 174 198 234 305 185 168 53 52 119
308 311 315 311 306 300 286 285 275 272 267 263 275 287 289 299 299 279 263 264 270 271 264 269 271 263 252 247 247 245 248 248 261 267 274 255 180 216 211 253 250 195 131 116 138
301 297 307 306 302 299 294 285 278 280 275 264 263 276 289 306 288 274 258 237 247 251 249 256 263 270 266 260 243 245 239 257 265 269 298 297 297 202 245 216 235 201 196 180 201
297 292 298 300 300 296 291 289 287 282 274 272 261 259 272 264 243 91 144 178 215 241 233 232 235 252 249 250 252 256 252 247 262 275 284 267 284 286 236 260 251 281 204 205 189
292 288 293 293 296 294 289 285 285 285 280 273 257 246 245 226 239 260 142 220 284 237 226 224 229 234 244 251 251 254 253 254 256 265 273 280 253 258 267 267 240 264 222 245 229
300 279 286 287 287 292 292 286 281 279 280 268 268 239 226 246 246 244 247 247 257 275 268 244 240 240 250 251 249 257 257 256 256 259 263 255 261 260 257 268 265 255 250 228 235
302 278 276 278 280 290 291 281 279 277 272 271 251 259 231 237 264 246 239 241 245 250 274 268 267 264 262 259 271 274 271 271 265 262 254 260 251 246 257 261 255 244 247 246 240
300 284 272 267 273 281 288 289 280 268 264 261 262 266 253 234 257 265 272 245 241 247 250 263 288 284 273 281 281 272 251 253 250 252 250 252 259 251 240 246 251 253 245 231 222
295 284 268 271 270 277 286 288 283 269 253 243 244 224 261 213 230 241 239 241 212 222 234 245 252 255 254 244 255 242 246 246 251 250 252 239 247 244 249 265 250 235 244 241 243
292 275 264 272 267 274 289 289 280 270 237 235 237 222 241 239 226 226 228 230 237 243 225 223 227 237 229 229 227 228 233 240 254 261 258 239 252 244 235 233 252 254 253 233 229
294 261 249 268 257 272 300 299 218 217 225 202 200 220 288 216 219 212 214 217 221 229 228 206 214 226 223 223 241 253 251 243 244 241 233 257 270 260 244 243 242 264 274 263 226
298 272 246 256 244 266 280 260 357 302 287 230 250 227 243 269 245 226 205 212 208 220 218 222 222 227 230 234 236 241 253 257 265 264 269 273 255 260 259 252 274 276 258 235 258
302 282 243 250 253 264 247 266 300 311 265 263 246 241 246 246 243 239 202 210 210 219 218 212 231 223 229 234 241 240 239 241 247 258 282 283 272 263 271 274 261 271 278 275 225
314 303 262 242 256 244 246 306 313 340 275 256 223 250 233 233 254 231 229 208 222 226 222 228 234 233 229 234 235 240 237 251 250 249 241 240 266 260 251 253 239 236 239 249 256
281 325 268 259 307 302 346 291 346 253 261 232 228 224 207 205 221 227 223 243 227 224 233 228 237 230 230 235 226 247 246 250 246 248 258 243 250 255 254 256 250 257 238 228 232
254 244 262 262 259 267 264 331 309 240 238 277 221 207 227 206 223 242 205 216 244 239 235 238 233 236 238 236 241 249 236 247 259 259 242 237 233 258 245 253 256 263 275 280 272
251 234 240 258 298 331 288 255 226 243 340 252 260 5 240 232 220 218 232 212 219 225 235 238 247 241 234 242 236 236 239 239 230 229 239 242 237 247 268 249 251 260 262 253 278
250 238 257 256 282 334 279 203 238 264 232 282 315 322 330 332 290 212 222 229 217 225 218 231 241 225 229 237 234 226 233 235 239 231 237 249 247 240 248 249 267 270 271 278 267
230 242 248 245 262 225 233 211 254 257 276 294 306 311 288 290 294 303 218 227 222 231 232 235 236 244 234 235 245 241 232 229 248 254 243 244 238 228 246 244 241 242 240 238 251
250 272 255 238 199 211 220 245 256 284 290 302 301 311 293 311 345 6 297 269 257 247 208 244 257 258 243 239 231 245 239 239 226 233 238 241 248 248 259 234 227 243 258 248 205
265 270 284 175 159 191 230 236 267 261 267 289 289 283 286 296 312 334 306 308 14 339 324 267 242 255 250 255 238 223 233 243 239 211 235 241 241 234 253 259 268 237 249 248 287
266 256 350 160 184 220 243 255 275 279 287 273 296 284 284 287 285 283 278 287 312 346 352 356 297 238 239 251 251 256 251 224 228 229 231 231 239 242 226 249 253 259 271 273 276
238 264 77 212 229 221 249 271 284 276 276 276 279 278 280 283 291 279 288 37 351 7 35 3 13 297 251 252 256 254 248 266 262 222 206 209 225 242 252 268 276 234 304 300 292
265 267 261 237 255 272 269 263 252 261 270 275 275 267 267 278 278 280 274 275 254 208 206 163 262 273 291 311 316 300 272 238 242 246 233 222 231 245 245 244 253 266 256 261 249
241 237 237 241 240 246 256 262 268 264 259 265 273 277 274 278 281 273 279 280 270 279 270 166 251 261 273 286 297 288 283 275 250 232 234 247 240 242 248 238 244 261 268 262 257
203 239 267 257 260 252 245 249 255 260 261 251 268 272 277 272 269 281 292 295 294 295 173 209 263 265 276 278 290 302 304 288 274 271 233 223 221 245 253 255 249 248 254 261 268
250 268 288 271 272 271 261 258 250 265 271 264 268 272 270 273 280 295 303 296 284 273 264 235 268 281 276 297 318 298 270 268 265 264 268 237 231 232 250 256 245 243 243 249 260